Champaign, IL

10:36 AM CDT on May 29, 2017 (GMT -0500)
Univ Of Illinois-Willard

Weather History for KCMI - September, 2013

Change the Weather History Date:

Tuesday, September 3, 2013

  Actual Average Record
Temperature  
Mean Temperature 67 °F 70 °F  
Max Temperature 78 °F 82 °F 97 °F (2011)
Min Temperature 55 °F 58 °F -53 °F (1998)
Degree Days  
Heating Degree Days 0 0  
Month to date heating degree days 0 0  
Since 1 July heating degree days 15 9  
Cooling Degree Days 2 5  
Month to date cooling degree days 20 17  
Year to date cooling degree days 873 844  
Growing Degree Days 15 (Base 50)    
Moisture  
Dew Point 56 °F    
Average Humidity 75    
Maximum Humidity 100    
Minimum Humidity 50    
Precipitation  
Precipitation 0.00 in 0.12 in 0.70 in (2008)
Month to date precipitation 0.00 0.42  
Year to date precipitation 24.21 27.70  
Sea Level Pressure  
Sea Level Pressure 30.06 in    
Wind  
Wind Speed 2 mph (NNE)    
Max Wind Speed 9 mph    
Max Gust Speed -    
Visibility 10 miles    
Events      
T = Trace of Precipitation, MM = Missing Value Source: NWS Daily Summary

Daily Weather History Graph

Daily Weather History Graph

Search for Another Location

Airport or City:

Trip Planner

Search our weather history database for the weather conditions in past years. The results will help you decide how hot, cold, wet, or windy it might be!

Date:

Astronomy

Sep. 03, 2013 Rise Set
Actual Time 6:22 AM CDT 7:21 PM CDT
Civil Twilight 5:55 AM CDT 7:48 PM CDT
Nautical Twilight 5:22 AM CDT 8:21 PM CDT
Astronomical Twilight 4:48 AM CDT 8:55 PM CDT
Moon 4:36 AM CDT (9/3) 6:08 PM CDT (9/3)
Length of Visible Light 13h 53m
Length of Day
12h 58m
Waning Crescent, 3% of the Moon is Illuminated
Sep 3
Waning Crescent
Sep 5
New
Sep 12
First Quarter
Sep 19
Full
Sep 26
Last Quarter

Hourly Weather History & Observations

Time (CDT) Temp. Dew Point Humidity Pressure Visibility Wind Dir Wind Speed Gust Speed Precip Events Conditions
12:53 AM 64.0 °F 60.1 °F 87% 29.98 in 10.0 mi NE 6.9 mph - N/A   Clear
1:53 AM 62.1 °F 60.1 °F 93% 29.98 in 10.0 mi NE 6.9 mph - N/A   Clear
2:53 AM 61.0 °F 59.0 °F 93% 30.00 in 10.0 mi ENE 4.6 mph - N/A   Clear
3:53 AM 59.0 °F 57.0 °F 93% 30.01 in 10.0 mi ENE 3.5 mph - N/A   Clear
4:53 AM 57.0 °F 55.9 °F 96% 30.02 in 9.0 mi Calm Calm - N/A   Clear
5:53 AM 55.9 °F 55.0 °F 97% 30.05 in 9.0 mi Calm Calm - N/A   Clear
6:53 AM 55.0 °F 54.0 °F 96% 30.07 in 9.0 mi Calm Calm - N/A   Clear
7:53 AM 62.1 °F 57.9 °F 86% 30.08 in 10.0 mi Calm Calm - N/A   Clear
8:53 AM 64.0 °F 55.9 °F 75% 30.09 in 10.0 mi SE 4.6 mph - N/A   Clear
9:53 AM 66.9 °F 55.9 °F 68% 30.09 in 10.0 mi Calm Calm - N/A   Partly Cloudy
10:40 AM 68.0 °F 55.4 °F 64% 30.11 in 10.0 mi Calm Calm - N/A   Mostly Cloudy
10:53 AM 69.1 °F 55.0 °F 61% 30.10 in 10.0 mi Calm Calm - N/A   Mostly Cloudy
11:10 AM 71.6 °F 55.4 °F 57% 30.11 in 10.0 mi Variable 4.6 mph - N/A   Mostly Cloudy
11:53 AM 70.0 °F 55.0 °F 59% 30.10 in 10.0 mi Calm Calm - N/A   Mostly Cloudy
12:53 PM 73.0 °F 55.0 °F 53% 30.10 in 10.0 mi North 6.9 mph - N/A   Mostly Cloudy
1:53 PM 73.9 °F 55.0 °F 52% 30.07 in 10.0 mi Calm Calm - N/A   Scattered Clouds
2:53 PM 75.9 °F 55.0 °F 48% 30.05 in 10.0 mi Variable 3.5 mph - N/A   Scattered Clouds
3:53 PM 75.9 °F 55.0 °F 48% 30.04 in 10.0 mi Calm Calm - N/A   Partly Cloudy
4:53 PM 73.9 °F 55.0 °F 52% 30.04 in 10.0 mi NW 3.5 mph - N/A   Clear
5:53 PM 73.0 °F 57.9 °F 59% 30.04 in 10.0 mi West 3.5 mph - N/A   Clear
6:53 PM 69.1 °F 59.0 °F 70% 30.04 in 10.0 mi WNW 3.5 mph - N/A   Clear
7:53 PM 64.9 °F 57.9 °F 78% 30.05 in 10.0 mi Calm Calm - N/A   Clear
8:53 PM 60.1 °F 57.0 °F 90% 30.07 in 10.0 mi Calm Calm - N/A   Clear
9:53 PM 59.0 °F 55.9 °F 90% 30.07 in 10.0 mi Calm Calm - N/A   Clear
10:53 PM 57.0 °F 54.0 °F 89% 30.07 in 10.0 mi Calm Calm - N/A   Clear
11:53 PM 57.0 °F 54.0 °F 89% 30.07 in 10.0 mi Calm Calm - N/A   Clear